Time,TemperatureF,DewpointF,PressureIn,WindDirection,WindDirectionDegrees,WindSpeedMPH,WindSpeedGustMPH,Humidity,HourlyPrecipIn,Conditions,Clouds,dailyrainin,SoftwareType,DateUTC
2013-03-03 00:02:00,8.0,4.0,30.12,NE,52,0.0,0.0,85,0.00,,,0.01,,2013-03-03 06:02:00,
2013-03-03 00:11:00,8.0,4.0,30.12,NE,52,0.0,0.0,85,0.00,,,0.01,,2013-03-03 06:11:00,
2013-03-03 00:21:00,8.0,4.0,30.12,NE,52,0.0,0.0,85,0.00,,,0.01,,2013-03-03 06:21:00,
2013-03-03 00:31:00,7.0,3.0,30.11,NE,52,0.0,0.0,85,0.00,,,0.01,,2013-03-03 06:31:00,
2013-03-03 00:42:00,7.0,3.0,30.11,NE,52,0.0,0.0,85,0.00,,,0.01,,2013-03-03 06:42:00,
2013-03-03 00:52:00,7.0,4.0,30.11,NE,53,0.0,0.0,86,0.00,,,0.01,,2013-03-03 06:52:00,
2013-03-03 01:01:00,7.0,4.0,30.11,NE,53,0.0,0.0,86,0.00,,,0.01,,2013-03-03 07:01:00,
2013-03-03 01:11:00,7.0,4.0,30.11,NE,53,0.0,0.0,86,0.00,,,0.01,,2013-03-03 07:11:00,
2013-03-03 01:21:00,6.0,3.0,30.11,NE,53,0.0,0.0,86,0.00,,,0.01,,2013-03-03 07:21:00,
2013-03-03 01:31:00,6.0,3.0,30.11,NE,53,0.0,0.0,86,0.00,,,0.01,,2013-03-03 07:31:00,
2013-03-03 01:42:00,6.0,3.0,30.11,NE,53,0.0,0.0,86,0.00,,,0.01,,2013-03-03 07:42:00,
2013-03-03 01:52:00,6.0,3.0,30.10,NE,53,0.0,0.0,86,0.00,,,0.01,,2013-03-03 07:52:00,
2013-03-03 02:01:00,6.0,3.0,30.10,NE,53,0.0,0.0,86,0.00,,,0.01,,2013-03-03 08:01:00,
2013-03-03 02:11:00,6.0,3.0,30.10,NE,53,0.0,0.0,86,0.00,,,0.01,,2013-03-03 08:11:00,
2013-03-03 02:21:00,6.0,3.0,30.10,NE,53,0.0,0.0,86,0.00,,,0.01,,2013-03-03 08:21:00,
2013-03-03 11:01:00,20.0,11.0,30.11,ENE,65,3.0,4.0,68,0.00,,,0.00,,2013-03-03 17:01:00,
2013-03-03 11:11:00,21.0,12.0,30.11,NNE,15,2.0,5.0,67,0.00,,,0.00,,2013-03-03 17:11:00,
2013-03-03 11:22:00,21.0,12.0,30.11,NNE,15,2.0,5.0,67,0.00,,,0.00,,2013-03-03 17:22:00,
2013-03-03 11:32:00,22.0,12.0,30.11,NNE,19,0.0,5.0,65,0.00,,,0.00,,2013-03-03 17:32:00,
2013-03-03 11:42:00,22.0,12.0,30.11,NNE,19,0.0,5.0,65,0.00,,,0.00,,2013-03-03 17:42:00,
2013-03-03 11:52:00,24.0,12.0,30.10,WNW,294,3.0,5.0,59,0.00,,,0.00,,2013-03-03 17:52:00,
2013-03-03 12:01:00,23.0,10.0,30.10,NNE,24,1.0,6.0,57,0.00,,,0.00,,2013-03-03 18:01:00,
2013-03-03 12:11:00,23.0,10.0,30.10,NNE,24,1.0,6.0,57,0.00,,,0.00,,2013-03-03 18:11:00,
2013-03-03 12:21:00,23.0,11.0,30.09,NNW,335,0.0,6.0,60,0.00,,,0.00,,2013-03-03 18:21:00,
2013-03-03 12:32:00,24.0,11.0,30.09,WNW,284,2.0,6.0,56,0.00,,,0.00,,2013-03-03 18:32:00,
2013-03-03 12:42:00,24.0,11.0,30.09,WNW,284,2.0,6.0,56,0.00,,,0.00,,2013-03-03 18:42:00,
2013-03-03 12:52:00,24.0,11.0,30.09,NE,38,5.0,7.0,56,0.00,,,0.00,,2013-03-03 18:52:00,
2013-03-03 13:01:00,23.0,9.0,30.08,North,11,1.0,6.0,54,0.00,,,0.00,,2013-03-03 19:01:00,
2013-03-03 13:11:00,23.0,9.0,30.08,North,11,1.0,6.0,54,0.00,,,0.00,,2013-03-03 19:11:00,
2013-03-03 13:21:00,23.0,6.0,30.08,NE,37,3.0,8.0,47,0.00,,,0.00,,2013-03-03 19:21:00,
2013-03-03 13:32:00,23.0,7.0,30.07,NNW,341,0.0,9.0,49,0.00,,,0.00,,2013-03-03 19:32:00,
2013-03-03 13:42:00,23.0,7.0,30.07,NNW,341,0.0,9.0,49,0.00,,,0.00,,2013-03-03 19:42:00,
2013-03-03 13:52:00,25.0,9.0,30.07,West,277,2.0,6.0,51,0.00,,,0.00,,2013-03-03 19:52:00,
2013-03-03 14:01:00,24.0,8.0,30.06,WNW,296,3.0,7.0,50,0.00,,,0.00,,2013-03-03 20:01:00,
2013-03-03 14:11:00,24.0,8.0,30.06,WNW,296,3.0,7.0,50,0.00,,,0.00,,2013-03-03 20:11:00,
2013-03-03 14:21:00,26.0,9.0,30.06,NNE,29,5.0,6.0,49,0.00,,,0.00,,2013-03-03 20:21:00,
2013-03-03 14:32:00,25.0,10.0,30.06,West,276,1.0,7.0,53,0.01,,,0.01,,2013-03-03 20:32:00,
2013-03-03 14:42:00,25.0,10.0,30.06,West,276,1.0,7.0,53,0.01,,,0.01,,2013-03-03 20:42:00,
2013-03-03 14:53:00,25.0,10.0,30.06,NE,36,3.0,6.0,52,0.01,,,0.01,,2013-03-03 20:53:00,
2013-03-03 15:01:00,25.0,9.0,30.06,NE,34,1.0,6.0,50,0.01,,,0.01,,2013-03-03 21:01:00,
2013-03-03 15:11:00,25.0,9.0,30.06,NE,34,1.0,6.0,50,0.01,,,0.01,,2013-03-03 21:11:00,
2013-03-03 15:22:00,26.0,11.0,30.06,NE,40,1.0,6.0,52,0.02,,,0.02,,2013-03-03 21:22:00,
2013-03-03 15:32:00,25.0,9.0,30.06,NE,36,0.0,7.0,49,0.01,,,0.02,,2013-03-03 21:32:00,
2013-03-03 15:42:00,25.0,9.0,30.06,NE,36,0.0,7.0,49,0.01,,,0.02,,2013-03-03 21:42:00,
2013-03-03 15:52:00,25.0,8.0,30.06,SW,236,3.0,6.0,47,0.02,,,0.03,,2013-03-03 21:52:00,
2013-03-03 16:01:00,25.0,7.0,30.06,North,355,1.0,4.0,45,0.02,,,0.03,,2013-03-03 22:01:00,
2013-03-03 16:11:00,25.0,7.0,30.06,North,355,1.0,4.0,45,0.02,,,0.03,,2013-03-03 22:11:00,
2013-03-03 16:22:00,25.0,7.0,30.06,NE,41,2.0,6.0,46,0.01,,,0.03,,2013-03-03 22:22:00,
2013-03-03 16:32:00,25.0,8.0,30.06,NE,55,1.0,5.0,47,0.01,,,0.03,,2013-03-03 22:32:00,
2013-03-03 16:42:00,25.0,8.0,30.06,NE,55,1.0,5.0,47,0.01,,,0.03,,2013-03-03 22:42:00,
2013-03-03 16:52:00,25.0,8.0,30.06,NE,44,3.0,5.0,47,0.00,,,0.03,,2013-03-03 22:52:00,
2013-03-03 17:01:00,24.0,7.0,30.06,NE,55,1.0,5.0,47,0.00,,,0.03,,2013-03-03 23:01:00,
2013-03-03 17:11:00,24.0,7.0,30.06,NE,55,1.0,5.0,47,0.00,,,0.03,,2013-03-03 23:11:00,
2013-03-03 17:21:00,23.0,8.0,30.06,NE,55,0.0,2.0,51,0.00,,,0.03,,2013-03-03 23:21:00,
2013-03-03 17:31:00,23.0,9.0,30.06,ENE,57,0.0,1.0,54,0.00,,,0.03,,2013-03-03 23:31:00,
2013-03-03 17:42:00,23.0,9.0,30.06,ENE,57,0.0,1.0,54,0.00,,,0.03,,2013-03-03 23:42:00,
2013-03-03 17:52:00,22.0,8.0,30.06,ENE,57,0.0,3.0,54,0.00,,,0.03,,2013-03-03 23:52:00,
2013-03-03 18:01:00,21.0,7.0,30.06,ENE,57,0.0,1.0,55,0.00,,,0.03,,2013-03-04 00:01:00,
2013-03-03 18:11:00,21.0,7.0,30.06,ENE,57,0.0,1.0,55,0.00,,,0.03,,2013-03-04 00:11:00,
2013-03-03 18:21:00,21.0,7.0,30.06,ENE,57,0.0,1.0,54,0.00,,,0.03,,2013-03-04 00:21:00,
2013-03-03 18:32:00,20.0,7.0,30.06,ENE,57,0.0,1.0,56,0.00,,,0.03,,2013-03-04 00:32:00,
2013-03-03 18:42:00,20.0,7.0,30.06,ENE,57,0.0,1.0,56,0.00,,,0.03,,2013-03-04 00:42:00,
2013-03-03 18:52:00,19.0,7.0,30.06,NE,56,0.0,0.0,58,0.00,,,0.03,,2013-03-04 00:52:00,
2013-03-03 19:01:00,19.0,7.0,30.06,NE,56,0.0,0.0,60,0.00,,,0.03,,2013-03-04 01:01:00,
2013-03-03 19:11:00,19.0,7.0,30.06,NE,56,0.0,0.0,60,0.00,,,0.03,,2013-03-04 01:11:00,
2013-03-03 19:21:00,18.0,7.0,30.06,ENE,57,0.0,1.0,61,0.00,,,0.03,,2013-03-04 01:21:00,
2013-03-03 19:32:00,17.0,6.0,30.06,ENE,57,0.0,0.0,61,0.00,,,0.03,,2013-03-04 01:32:00,
2013-03-03 19:42:00,17.0,6.0,30.06,ENE,57,0.0,0.0,61,0.00,,,0.03,,2013-03-04 01:42:00,
2013-03-03 19:52:00,16.0,6.0,30.06,ENE,57,0.0,0.0,63,0.00,,,0.03,,2013-03-04 01:52:00,
2013-03-03 20:01:00,15.0,5.0,30.06,NE,56,0.0,0.0,65,0.00,,,0.03,,2013-03-04 02:01:00,
2013-03-03 20:11:00,15.0,5.0,30.06,NE,56,0.0,0.0,65,0.00,,,0.03,,2013-03-04 02:11:00,
2013-03-03 20:22:00,15.0,6.0,30.06,ENE,57,0.0,0.0,67,0.00,,,0.03,,2013-03-04 02:22:00,
2013-03-03 20:32:00,14.0,5.0,30.06,ENE,57,0.0,0.0,68,0.00,,,0.03,,2013-03-04 02:32:00,
2013-03-03 20:42:00,14.0,5.0,30.06,ENE,57,0.0,0.0,68,0.00,,,0.03,,2013-03-04 02:42:00,
2013-03-03 20:52:00,14.0,6.0,30.07,NE,56,0.0,0.0,70,0.00,,,0.03,,2013-03-04 02:52:00,
2013-03-03 21:01:00,14.0,7.0,30.07,ENE,57,0.0,0.0,72,0.00,,,0.03,,2013-03-04 03:01:00,
2013-03-03 21:11:00,14.0,7.0,30.07,ENE,57,0.0,0.0,72,0.00,,,0.03,,2013-03-04 03:11:00,
2013-03-03 21:21:00,14.0,7.0,30.07,ENE,57,0.0,0.0,72,0.00,,,0.03,,2013-03-04 03:21:00,
2013-03-03 21:32:00,14.0,7.0,30.07,NE,56,0.0,0.0,73,0.00,,,0.03,,2013-03-04 03:32:00,
2013-03-03 21:42:00,13.0,6.0,30.07,ENE,57,0.0,0.0,73,0.00,,,0.03,,2013-03-04 03:42:00,
2013-03-03 21:52:00,13.0,6.0,30.07,ENE,57,0.0,0.0,73,0.00,,,0.03,,2013-03-04 03:52:00,
2013-03-03 22:01:00,13.0,6.0,30.07,NE,56,0.0,0.0,73,0.00,,,0.03,,2013-03-04 04:01:00,
2013-03-03 22:11:00,13.0,6.0,30.07,NE,56,0.0,0.0,73,0.00,,,0.03,,2013-03-04 04:11:00,
2013-03-03 22:22:00,12.0,6.0,30.08,ENE,57,0.0,0.0,75,0.00,,,0.03,,2013-03-04 04:22:00,
2013-03-03 22:32:00,12.0,6.0,30.07,ENE,57,0.0,0.0,76,0.00,,,0.03,,2013-03-04 04:32:00,
2013-03-03 22:42:00,12.0,6.0,30.07,ENE,57,0.0,0.0,76,0.00,,,0.03,,2013-03-04 04:42:00,
2013-03-03 22:52:00,11.0,5.0,30.07,ENE,57,0.0,0.0,77,0.00,,,0.03,,2013-03-04 04:52:00,
2013-03-03 23:01:00,11.0,5.0,30.06,ENE,57,0.0,0.0,77,0.00,,,0.03,,2013-03-04 05:01:00,
2013-03-03 23:11:00,11.0,5.0,30.06,ENE,57,0.0,0.0,77,0.00,,,0.03,,2013-03-04 05:11:00,
2013-03-03 23:22:00,11.0,6.0,30.07,NE,56,0.0,0.0,78,0.00,,,0.03,,2013-03-04 05:22:00,
2013-03-03 23:31:00,10.0,5.0,30.07,NE,56,0.0,0.0,78,0.00,,,0.03,,2013-03-04 05:31:00,
2013-03-03 23:42:00,10.0,5.0,30.07,NE,56,0.0,0.0,78,0.00,,,0.03,,2013-03-04 05:42:00,
2013-03-03 23:52:00,10.0,5.0,30.07,ENE,57,0.0,0.0,79,0.00,,,0.03,,2013-03-04 05:52:00,